BOX513 VHHH-EDDP

Flight info

Callsign BOX513
Flight time N/A
Altitude 25600
Route BEKOL A461 SHL W22 TEPID W24 OSNOV G586 QP B330 ELKAL W179 BIPIP/K0906S0840 W179 IGNAK/K0889S0810 W179 WFX/K0902S0840 W179 OMBON/K0928S0920 Y1 SADAN W186 KAMUD/K0896F300 L141 TISIB L163 SR N193 OGOLI T898 DARVA/N0484F300 B476 METKA L88 NIJAT/N0479F320 N644 ADEKI DCT BADIR DCT LAGAS DCT NOLGA UG261 TBN UM11 CRM UL746 ODERO L746 LUGEB DCT NARKA DCT MAKAL DCT BEFRE DCT IVQOQ T951 YAWOY YAWOY1R
Aircraft B77L/H-SDE1E2E3FGHIJ2J3J4J5M1RWXY/LB1D1

Departure

Time 2026-05-05 21:38
Airport Hong Kong International Airport (VHHH)

Arrival

Time N/A
Airport Leipzig/Halle Airport (EDDP)
Time Latitude Longitude Altitude Speed Heading
2026-05-05 20:58 22.29658 113.91954 41 ft 0 kts 71°
2026-05-05 21:21 22.29657 113.91951 41 ft 3 kts 71°
2026-05-05 21:21 22.29650 113.91924 39 ft 4 kts 72°
2026-05-05 21:21 22.29640 113.91904 38 ft 4 kts 47°
2026-05-05 21:22 22.29620 113.91886 37 ft 4 kts 17°
2026-05-05 21:22 22.29594 113.91884 38 ft 4 kts 346°
2026-05-05 21:22 22.29569 113.91894 41 ft 3 kts 339°
2026-05-05 21:22 22.29564 113.91895 41 ft 0 kts 341°
2026-05-05 21:26 22.29588 113.91886 41 ft 10 kts 341°
2026-05-05 21:26 22.29664 113.91858 41 ft 11 kts 341°
2026-05-05 21:26 22.29740 113.91830 41 ft 11 kts 341°
2026-05-05 21:26 22.29815 113.91799 41 ft 11 kts 335°
2026-05-05 21:27 22.29885 113.91758 41 ft 11 kts 333°
2026-05-05 21:27 22.29959 113.91726 41 ft 11 kts 340°
2026-05-05 21:27 22.30028 113.91687 41 ft 11 kts 300°
2026-05-05 21:27 22.30039 113.91604 41 ft 11 kts 303°
2026-05-05 21:28 22.30066 113.91585 41 ft 0 kts 335°
2026-05-05 21:28 22.30079 113.91579 42 ft 8 kts 336°
2026-05-05 21:28 22.30162 113.91542 42 ft 14 kts 338°
2026-05-05 21:28 22.30225 113.91519 42 ft 14 kts 342°
2026-05-05 21:29 22.30321 113.91487 41 ft 14 kts 341°
2026-05-05 21:29 22.30416 113.91406 41 ft 14 kts 267°
2026-05-05 21:29 22.30386 113.91303 41 ft 14 kts 251°
2026-05-05 21:29 22.30353 113.91201 41 ft 14 kts 250°
2026-05-05 21:30 22.30320 113.91099 41 ft 14 kts 250°
2026-05-05 21:30 22.30289 113.91003 41 ft 14 kts 250°
2026-05-05 21:30 22.30257 113.90907 41 ft 14 kts 250°
2026-05-05 21:30 22.30236 113.90842 41 ft 14 kts 251°
2026-05-05 21:31 22.30208 113.90745 41 ft 14 kts 262°
2026-05-05 21:31 22.30252 113.90692 41 ft 10 kts 340°
2026-05-05 21:31 22.30319 113.90667 41 ft 10 kts 340°
2026-05-05 21:31 22.30385 113.90642 41 ft 10 kts 341°
2026-05-05 21:32 22.30452 113.90617 41 ft 10 kts 341°
2026-05-05 21:32 22.30520 113.90591 41 ft 10 kts 341°
2026-05-05 21:32 22.30588 113.90566 41 ft 10 kts 341°
2026-05-05 21:32 22.30655 113.90540 41 ft 10 kts 341°
2026-05-05 21:33 22.30724 113.90515 41 ft 10 kts 341°
2026-05-05 21:33 22.30792 113.90489 41 ft 10 kts 341°
2026-05-05 21:33 22.30859 113.90464 41 ft 10 kts 341°
2026-05-05 21:33 22.30927 113.90439 41 ft 10 kts 341°
2026-05-05 21:34 22.30988 113.90400 41 ft 10 kts 303°
2026-05-05 21:34 22.30985 113.90325 41 ft 10 kts 252°
2026-05-05 21:34 22.30962 113.90252 41 ft 10 kts 251°
2026-05-05 21:34 22.30939 113.90178 41 ft 10 kts 251°
2026-05-05 21:35 22.30916 113.90105 41 ft 10 kts 251°
2026-05-05 21:35 22.30892 113.90032 41 ft 10 kts 251°
2026-05-05 21:35 22.30869 113.89958 41 ft 10 kts 251°
2026-05-05 21:35 22.30845 113.89885 41 ft 10 kts 250°
2026-05-05 21:36 22.30821 113.89812 41 ft 10 kts 252°
2026-05-05 21:36 22.30832 113.89739 40 ft 10 kts 310°
2026-05-05 21:36 22.30897 113.89708 41 ft 10 kts 339°
2026-05-05 21:36 22.30965 113.89682 41 ft 10 kts 341°
2026-05-05 21:37 22.31035 113.89669 41 ft 10 kts 14°
2026-05-05 21:37 22.31060 113.89699 41 ft 0 kts 68°
2026-05-05 21:37 22.31083 113.89763 41 ft 34 kts 70°
2026-05-05 21:37 22.31253 113.90278 40 ft 110 kts 71°
2026-05-05 21:38 22.31581 113.91306 43 ft 178 kts 71°
2026-05-05 21:38 22.32030 113.92693 350 ft 198 kts 72°
2026-05-05 21:38 22.32482 113.94066 1116 ft 192 kts 72°
2026-05-05 21:38 22.32933 113.95438 1714 ft 196 kts 72°
2026-05-05 21:39 22.33357 113.96846 2073 ft 201 kts 77°
2026-05-05 21:39 22.33640 113.98346 2343 ft 206 kts 84°
2026-05-05 21:39 22.33863 113.99915 2595 ft 217 kts 83°
2026-05-05 21:39 22.34122 114.01576 2777 ft 234 kts 82°
2026-05-05 21:40 22.34389 114.03362 2996 ft 247 kts 88°
2026-05-05 21:40 22.34176 114.05241 3141 ft 262 kts 114°
2026-05-05 21:40 22.33196 114.06903 3490 ft 268 kts 137°
2026-05-05 21:40 22.31690 114.08079 4057 ft 269 kts 156°
2026-05-05 21:41 22.29883 114.08688 4478 ft 278 kts 175°
2026-05-05 21:41 22.27932 114.08756 4935 ft 284 kts 183°
2026-05-05 21:41 22.25976 114.08705 5544 ft 286 kts 182°
2026-05-05 21:41 22.23991 114.08682 6266 ft 285 kts 182°
2026-05-05 21:42 22.22008 114.08663 6860 ft 286 kts 182°
2026-05-05 21:42 22.20004 114.08656 7395 ft 289 kts 179°
2026-05-05 21:42 22.18044 114.09196 7752 ft 300 kts 150°
2026-05-05 21:42 22.16498 114.10719 8018 ft 306 kts 124°
2026-05-05 21:43 22.15804 114.12870 8045 ft 308 kts 94°
2026-05-05 21:43 22.15726 114.15197 8367 ft 314 kts 94°
2026-05-05 21:43 22.15565 114.17558 8895 ft 317 kts 96°
2026-05-05 21:43 22.15393 114.19949 9395 ft 322 kts 95°
2026-05-05 21:44 22.15232 114.22371 9934 ft 325 kts 95°
2026-05-05 21:44 22.15086 114.24821 10356 ft 331 kts 92°
2026-05-05 21:44 22.15321 114.27351 10435 ft 348 kts 77°
2026-05-05 21:44 22.15943 114.29931 10597 ft 365 kts 74°
2026-05-05 21:45 22.16620 114.32642 10732 ft 382 kts 76°
2026-05-05 21:45 22.17269 114.35473 10988 ft 394 kts 76°
2026-05-05 21:45 22.18257 114.38240 11174 ft 402 kts 55°
2026-05-05 21:45 22.20163 114.40436 11614 ft 403 kts 33°
2026-05-05 21:46 22.22648 114.41776 12179 ft 400 kts 13°
2026-05-05 21:46 22.25372 114.42253 12731 ft 395 kts 356°
2026-05-05 21:46 22.28081 114.41887 13153 ft 394 kts 346°
2026-05-05 21:46 22.30800 114.41315 13552 ft 400 kts 346°
2026-05-05 21:47 22.33542 114.40745 14067 ft 403 kts 346°
2026-05-05 21:47 22.36304 114.40190 14607 ft 404 kts 346°
2026-05-05 21:47 22.39075 114.39651 15118 ft 406 kts 346°
2026-05-05 21:47 22.41863 114.39119 15596 ft 408 kts 347°
2026-05-05 21:48 22.44667 114.38581 16022 ft 409 kts 345°
2026-05-05 21:48 22.47316 114.37555 16270 ft 406 kts 325°
2026-05-05 21:48 22.49427 114.35564 16637 ft 403 kts 306°
2026-05-05 21:48 22.50914 114.33011 17135 ft 401 kts 293°
2026-05-05 21:49 22.51755 114.30151 17577 ft 401 kts 279°
2026-05-05 21:49 22.52174 114.27168 17978 ft 403 kts 277°
2026-05-05 21:49 22.52590 114.24153 18340 ft 407 kts 278°
2026-05-05 21:49 22.53049 114.21129 18690 ft 410 kts 279°
2026-05-05 21:50 22.53543 114.18087 19040 ft 409 kts 282°
2026-05-05 21:50 22.54541 114.15192 19193 ft 416 kts 301°
2026-05-05 21:50 22.56384 114.12758 19488 ft 422 kts 315°
2026-05-05 21:50 22.58748 114.10860 19882 ft 425 kts 329°
2026-05-05 21:51 22.61415 114.09451 20206 ft 428 kts 333°
2026-05-05 21:51 22.64142 114.08113 20525 ft 432 kts 334°
2026-05-05 21:51 22.66885 114.06775 20882 ft 433 kts 334°
2026-05-05 21:51 22.69633 114.05416 21258 ft 435 kts 333°
2026-05-05 21:52 22.75143 114.02629 21958 ft 439 kts 333°
2026-05-05 21:52 22.77898 114.01217 22300 ft 441 kts 333°
2026-05-05 21:52 22.80675 113.99790 22604 ft 444 kts 333°
2026-05-05 21:53 22.83483 113.98345 22846 ft 448 kts 333°
2026-05-05 21:53 22.86308 113.96893 23178 ft 450 kts 333°
2026-05-05 21:53 22.89141 113.95437 23541 ft 451 kts 333°
2026-05-05 21:53 22.91978 113.93973 23838 ft 452 kts 333°
2026-05-05 21:54 22.94820 113.92495 24119 ft 454 kts 333°
2026-05-05 21:54 22.97671 113.91008 24411 ft 455 kts 333°
2026-05-05 21:54 23.00526 113.89520 24703 ft 456 kts 333°
2026-05-05 21:54 23.03393 113.88027 24983 ft 457 kts 333°
2026-05-05 21:55 23.06247 113.86494 25267 ft 457 kts 329°
2026-05-05 21:55 23.08950 113.84672 25526 ft 458 kts 324°
2026-05-05 21:55 23.11496 113.82596 25812 ft 458 kts 319°
2026-05-05 21:55 23.13853 113.80260 26055 ft 459 kts 315°
2026-05-05 21:56 23.16100 113.77883 26300 ft 460 kts 315°
2026-05-05 21:56 23.18396 113.75444 26566 ft 462 kts 315°
2026-05-05 21:56 23.20699 113.73004 26824 ft 463 kts 315°
2026-05-05 21:56 23.23014 113.70561 27028 ft 465 kts 315°
2026-05-05 21:57 23.25345 113.68109 27290 ft 466 kts 315°
2026-05-05 21:57 23.27678 113.65660 27559 ft 467 kts 315°
2026-05-05 21:57 23.30020 113.63204 27821 ft 468 kts 315°
2026-05-05 21:57 23.32369 113.60739 28058 ft 470 kts 315°
2026-05-05 21:58 23.34723 113.58268 28295 ft 471 kts 315°
2026-05-05 21:58 23.37056 113.55818 28507 ft 473 kts 315°
2026-05-05 21:58 23.39423 113.53329 28735 ft 474 kts 315°
2026-05-05 21:58 23.41796 113.50833 28962 ft 475 kts 315°
2026-05-05 21:59 23.44172 113.48333 29175 ft 476 kts 315°
2026-05-05 21:59 23.46555 113.45824 29390 ft 477 kts 315°
2026-05-05 21:59 23.48936 113.43315 29672 ft 476 kts 315°
2026-05-05 21:59 23.51319 113.40803 29877 ft 478 kts 315°
2026-05-05 22:00 23.53711 113.38280 29898 ft 479 kts 315°
2026-05-05 22:00 23.58440 113.33206 29968 ft 476 kts 314°
2026-05-05 22:01 23.63137 113.28128 29974 ft 475 kts 313°
2026-05-05 22:01 23.67161 113.22449 29976 ft 474 kts 302°
2026-05-05 22:02 23.70229 113.16098 29982 ft 473 kts 294°
2026-05-05 22:02 23.72867 113.09509 29963 ft 474 kts 294°
2026-05-05 22:03 23.75587 113.02954 29963 ft 472 kts 298°
2026-05-05 22:03 23.77473 113.00027 29953 ft 474 kts 314°
2026-05-05 22:03 23.80003 112.97720 29978 ft 477 kts 325°
2026-05-05 22:03 23.82946 112.96030 29976 ft 481 kts 338°
2026-05-05 22:04 23.86176 112.95006 29987 ft 485 kts 343°
2026-05-05 22:04 23.92693 112.93031 29981 ft 487 kts 341°
2026-05-05 22:05 23.99181 112.90868 29983 ft 488 kts 341°
2026-05-05 22:05 24.05683 112.88696 29981 ft 489 kts 341°
2026-05-05 22:06 24.12183 112.86537 29975 ft 488 kts 341°
2026-05-05 22:06 24.18669 112.84384 29991 ft 486 kts 341°
2026-05-05 22:07 24.25129 112.82242 29976 ft 484 kts 341°
2026-05-05 22:07 24.31555 112.80107 29977 ft 482 kts 341°
2026-05-05 22:08 24.37964 112.77976 29984 ft 481 kts 341°
2026-05-05 22:08 24.44196 112.75439 29980 ft 475 kts 324°
2026-05-05 22:08 24.46670 112.73073 30006 ft 473 kts 307°
2026-05-05 22:09 24.48494 112.70068 29993 ft 475 kts 297°
2026-05-05 22:09 24.49769 112.66717 29988 ft 477 kts 285°
2026-05-05 22:09 24.50340 112.63139 30004 ft 477 kts 277°
2026-05-05 22:10 24.50948 112.55855 30000 ft 480 kts 276°
2026-05-05 22:10 24.51545 112.48534 29993 ft 482 kts 276°
2026-05-05 22:11 24.52215 112.41200 29978 ft 482 kts 276°
2026-05-05 22:11 24.52796 112.35126 29979 ft 480 kts 276°
2026-05-05 22:12 24.53496 112.27852 29966 ft 478 kts 276°
2026-05-05 22:12 24.54186 112.20620 29978 ft 475 kts 276°
2026-05-05 22:13 24.54870 112.13417 29993 ft 474 kts 276°
2026-05-05 22:13 24.55549 112.06212 29976 ft 474 kts 276°
2026-05-05 22:14 24.56223 111.99007 29977 ft 475 kts 276°
2026-05-05 22:14 24.56895 111.91788 29973 ft 475 kts 276°
2026-05-05 22:15 24.57566 111.84558 29975 ft 476 kts 276°
2026-05-05 22:15 24.58233 111.77318 29971 ft 477 kts 276°
2026-05-05 22:16 24.58898 111.70072 29967 ft 477 kts 275°
2026-05-05 22:16 24.59560 111.62818 29972 ft 478 kts 275°
2026-05-05 22:17 24.60222 111.55508 29963 ft 478 kts 275°
2026-05-05 22:17 24.60874 111.48302 29963 ft 477 kts 275°
2026-05-05 22:18 24.61524 111.41040 29964 ft 478 kts 275°
2026-05-05 22:18 24.62174 111.33769 29955 ft 478 kts 275°
2026-05-05 22:19 24.62819 111.26495 29958 ft 478 kts 275°
2026-05-05 22:19 24.63450 111.19237 29956 ft 477 kts 275°
2026-05-05 22:20 24.64079 111.11970 29956 ft 477 kts 275°
2026-05-05 22:20 24.64704 111.04707 29950 ft 478 kts 275°
2026-05-05 22:21 24.65327 110.97435 29947 ft 478 kts 275°
2026-05-05 22:21 24.65947 110.90164 29946 ft 478 kts 275°
2026-05-05 22:22 24.66600 110.82902 29940 ft 476 kts 279°
2026-05-05 22:22 24.67491 110.79404 29939 ft 477 kts 292°
2026-05-05 22:22 24.69016 110.76166 29957 ft 479 kts 301°
2026-05-05 22:22 24.71020 110.73235 29935 ft 481 kts 313°
2026-05-05 22:23 24.73440 110.70696 29961 ft 481 kts 315°
2026-05-05 22:23 24.78370 110.65670 29963 ft 484 kts 315°
2026-05-05 22:24 24.83275 110.60566 29940 ft 486 kts 314°
2026-05-05 22:24 24.88139 110.55424 29936 ft 484 kts 314°
2026-05-05 22:25 24.92983 110.50298 29945 ft 482 kts 314°
2026-05-05 22:25 24.97819 110.45177 29935 ft 482 kts 314°
2026-05-05 22:26 25.02661 110.40052 29937 ft 483 kts 314°
2026-05-05 22:26 25.07517 110.34930 29939 ft 483 kts 314°
2026-05-05 22:27 25.12381 110.29795 29935 ft 484 kts 314°
2026-05-05 22:27 25.17242 110.24653 29940 ft 484 kts 314°
2026-05-05 22:28 25.22106 110.19509 29934 ft 484 kts 315°
2026-05-05 22:28 25.26998 110.14391 29937 ft 484 kts 315°
2026-05-05 22:29 25.31884 110.09288 29933 ft 483 kts 315°
2026-05-05 22:29 25.36763 110.04176 29929 ft 483 kts 315°
2026-05-05 22:30 25.41635 109.99061 29928 ft 482 kts 315°
2026-05-05 22:30 25.46497 109.93949 29939 ft 482 kts 315°
2026-05-05 22:31 25.51362 109.88829 29936 ft 482 kts 315°
2026-05-05 22:31 25.56218 109.83712 29926 ft 482 kts 315°
2026-05-05 22:32 25.61068 109.78596 29908 ft 481 kts 315°
2026-05-05 22:32 25.65909 109.73482 29928 ft 480 kts 315°
2026-05-05 22:33 25.70743 109.68369 29925 ft 481 kts 315°
2026-05-05 22:33 25.75433 109.63101 29917 ft 478 kts 306°
2026-05-05 22:34 25.78778 109.56760 29918 ft 477 kts 292°
2026-05-05 22:34 25.80773 109.49740 29907 ft 478 kts 285°
2026-05-05 22:35 25.82568 109.42640 29919 ft 479 kts 286°
2026-05-05 22:35 25.84411 109.35530 29930 ft 479 kts 286°
2026-05-05 22:36 25.86276 109.28423 29918 ft 480 kts 286°
2026-05-05 22:36 25.88141 109.21310 29918 ft 479 kts 286°
2026-05-05 22:37 25.89998 109.14204 29927 ft 479 kts 286°
2026-05-05 22:37 25.91852 109.07094 29914 ft 479 kts 286°
2026-05-05 22:38 25.93707 109.00007 29926 ft 478 kts 286°
2026-05-05 22:38 25.95581 108.92930 29928 ft 477 kts 286°
2026-05-05 22:39 25.97446 108.85859 29920 ft 477 kts 286°
2026-05-05 22:39 25.99306 108.78784 29923 ft 477 kts 286°
2026-05-05 22:40 26.01164 108.71703 29930 ft 477 kts 286°
2026-05-05 22:40 26.03050 108.64637 29927 ft 477 kts 286°
2026-05-05 22:41 26.04947 108.57564 29924 ft 477 kts 286°
2026-05-05 22:41 26.06825 108.50525 29925 ft 478 kts 286°
2026-05-05 22:42 26.08708 108.43442 29920 ft 478 kts 286°
2026-05-05 22:42 26.11007 108.36450 29926 ft 480 kts 295°
2026-05-05 22:43 26.13950 108.29778 29935 ft 481 kts 295°
2026-05-05 22:43 26.16887 108.23074 29936 ft 482 kts 295°
2026-05-05 22:44 26.19804 108.16335 29918 ft 483 kts 295°
2026-05-05 22:44 26.22710 108.09583 29927 ft 484 kts 294°
2026-05-05 22:45 26.25595 108.02867 29923 ft 484 kts 294°
2026-05-05 22:45 26.28516 107.96061 29915 ft 483 kts 294°
2026-05-05 22:46 26.31389 107.89360 29926 ft 482 kts 294°
2026-05-05 22:46 26.34276 107.82613 29929 ft 482 kts 294°
2026-05-05 22:47 26.37175 107.75827 29911 ft 481 kts 294°
2026-05-05 22:47 26.40048 107.69090 29918 ft 480 kts 294°
2026-05-05 22:48 26.42895 107.62405 29920 ft 480 kts 294°
2026-05-05 22:48 26.45777 107.55625 29922 ft 480 kts 294°
2026-05-05 22:49 26.48642 107.48893 29911 ft 480 kts 294°
2026-05-05 22:49 26.51510 107.42217 29906 ft 480 kts 294°
2026-05-05 22:50 26.54393 107.35490 29917 ft 480 kts 294°
2026-05-05 22:50 26.57266 107.28696 29921 ft 481 kts 294°
2026-05-05 22:51 26.60084 107.21968 29914 ft 481 kts 294°
2026-05-05 22:51 26.62928 107.15190 29913 ft 482 kts 294°
2026-05-05 22:52 26.65794 107.08419 29909 ft 482 kts 294°
2026-05-05 22:52 26.68678 107.01659 29898 ft 482 kts 294°
2026-05-05 22:53 26.71087 106.95992 29889 ft 481 kts 293°
2026-05-05 22:53 26.73950 106.89234 29883 ft 481 kts 293°
2026-05-05 22:54 26.76825 106.82535 29886 ft 481 kts 297°
2026-05-05 22:54 26.80677 106.76403 29891 ft 484 kts 308°
2026-05-05 22:55 26.85532 106.71150 29886 ft 486 kts 316°
2026-05-05 22:55 26.90673 106.66213 29886 ft 487 kts 316°
2026-05-05 22:56 26.95790 106.61250 29849 ft 486 kts 316°
2026-05-05 22:56 27.00882 106.56254 29857 ft 486 kts 316°
2026-05-05 22:57 27.05966 106.51246 29858 ft 486 kts 316°
2026-05-05 22:57 27.11046 106.46240 29847 ft 486 kts 315°
2026-05-05 22:58 27.16125 106.41230 29839 ft 486 kts 315°
2026-05-05 22:58 27.21199 106.36225 29837 ft 485 kts 316°
2026-05-05 22:59 27.26299 106.31263 29834 ft 484 kts 316°
2026-05-05 22:59 27.31398 106.26320 29821 ft 483 kts 316°
2026-05-05 23:00 27.38991 106.18927 29814 ft 480 kts 315°
2026-05-05 23:00 27.44042 106.13995 29811 ft 480 kts 315°
2026-05-05 23:01 27.49078 106.09071 29806 ft 480 kts 315°
2026-05-05 23:01 27.54122 106.04133 29792 ft 481 kts 315°
2026-05-05 23:02 27.59175 105.99181 29790 ft 482 kts 315°
2026-05-05 23:02 27.64228 105.94223 29785 ft 482 kts 315°
2026-05-05 23:03 27.69265 105.89247 29772 ft 480 kts 313°
2026-05-05 23:03 27.73271 105.83349 29775 ft 472 kts 296°
2026-05-05 23:04 27.75740 105.76540 29756 ft 468 kts 284°
2026-05-05 23:04 27.77621 105.69492 29740 ft 469 kts 285°
2026-05-05 23:05 27.79600 105.62469 29760 ft 468 kts 286°
2026-05-05 23:05 27.82053 105.55767 29736 ft 458 kts 291°
2026-05-05 23:06 27.84635 105.49178 29741 ft 459 kts 291°
2026-05-05 23:06 27.87193 105.42554 29726 ft 461 kts 291°
2026-05-05 23:07 27.89869 105.35957 29726 ft 463 kts 294°
2026-05-05 23:07 27.92796 105.29466 29707 ft 464 kts 294°
2026-05-05 23:08 27.95706 105.22965 29714 ft 462 kts 295°
2026-05-05 23:08 27.99553 105.17121 29702 ft 468 kts 310°
2026-05-05 23:09 28.04647 105.12490 29695 ft 474 kts 324°
2026-05-05 23:09 28.10303 105.08649 29683 ft 474 kts 324°
2026-05-05 23:10 28.15942 105.04786 29711 ft 475 kts 324°
2026-05-05 23:10 28.21586 105.00848 29688 ft 478 kts 324°
2026-05-05 23:11 28.27254 104.96873 29681 ft 481 kts 324°
2026-05-05 23:11 28.32953 104.92877 29662 ft 482 kts 324°
2026-05-05 23:12 28.38648 104.88879 29676 ft 481 kts 323°
2026-05-05 23:12 28.44347 104.84887 29672 ft 481 kts 324°
2026-05-05 23:13 28.50041 104.80903 29663 ft 480 kts 324°
2026-05-05 23:13 28.55728 104.76917 29662 ft 480 kts 324°
2026-05-05 23:14 28.61414 104.72924 29662 ft 480 kts 324°
2026-05-05 23:14 28.67101 104.68924 29659 ft 480 kts 324°
2026-05-05 23:15 28.72788 104.64919 29657 ft 480 kts 324°
2026-05-05 23:15 28.78481 104.60904 29671 ft 482 kts 324°
2026-05-05 23:16 28.84195 104.56871 29667 ft 484 kts 324°
2026-05-05 23:16 28.89922 104.52813 29664 ft 485 kts 324°
2026-05-05 23:17 28.95651 104.48737 29664 ft 486 kts 324°
2026-05-05 23:17 29.01388 104.44650 29661 ft 486 kts 324°
2026-05-05 23:18 29.07130 104.40556 29670 ft 487 kts 324°
2026-05-05 23:18 29.12873 104.36455 29668 ft 487 kts 324°
2026-05-05 23:19 29.18620 104.32347 29670 ft 487 kts 324°
2026-05-05 23:19 29.24447 104.28409 29653 ft 489 kts 333°
2026-05-05 23:20 29.27725 104.27267 29665 ft 497 kts 346°
2026-05-05 23:20 29.31178 104.26861 29671 ft 503 kts 356°
2026-05-05 23:20 29.38169 104.27877 29662 ft 509 kts
2026-05-05 23:21 29.45173 104.29197 29664 ft 511 kts
2026-05-05 23:21 29.52211 104.30446 29677 ft 512 kts
2026-05-05 23:22 29.59276 104.31650 29673 ft 514 kts
2026-05-05 23:22 29.66358 104.32850 29678 ft 514 kts
2026-05-05 23:23 29.73434 104.34056 29673 ft 514 kts
2026-05-05 23:23 29.80494 104.35264 29671 ft 512 kts
2026-05-05 23:24 29.87535 104.36470 29669 ft 511 kts
2026-05-05 23:24 29.94558 104.37674 29676 ft 510 kts
2026-05-05 23:25 30.01574 104.38879 29672 ft 509 kts
2026-05-05 23:25 30.08527 104.40074 29677 ft 509 kts
2026-05-05 23:26 30.15573 104.41288 29675 ft 509 kts
2026-05-05 23:26 30.22540 104.42503 29679 ft 509 kts
2026-05-05 23:27 30.29532 104.43728 29689 ft 508 kts
2026-05-05 23:27 30.36517 104.44952 29692 ft 507 kts
2026-05-05 23:28 30.43490 104.46175 29689 ft 507 kts
2026-05-05 23:28 30.50461 104.47398 29689 ft 507 kts
2026-05-05 23:29 30.57443 104.48470 29672 ft 504 kts 359°
2026-05-05 23:29 30.64394 104.47757 29698 ft 496 kts 345°
2026-05-05 23:30 30.69841 104.45807 29706 ft 492 kts 337°
2026-05-05 23:30 30.77376 104.42782 29692 ft 494 kts 338°
2026-05-05 23:31 30.83928 104.40300 29689 ft 496 kts 341°
2026-05-05 23:31 30.90744 104.38854 29696 ft 501 kts 352°
2026-05-05 23:32 30.97743 104.38630 29706 ft 503 kts 356°
2026-05-05 23:32 31.04743 104.38524 29701 ft 503 kts 355°
2026-05-05 23:33 31.10558 104.38389 29697 ft 502 kts 355°
2026-05-05 23:33 31.17587 104.38198 29703 ft 502 kts 355°
2026-05-05 23:34 31.24516 104.38012 29705 ft 501 kts 355°
2026-05-05 23:34 31.31477 104.37694 29715 ft 499 kts 353°
2026-05-05 23:35 31.38406 104.37253 29709 ft 498 kts 353°
2026-05-05 23:35 31.45322 104.36827 29714 ft 497 kts 353°
2026-05-05 23:36 31.52270 104.36422 29731 ft 497 kts 354°
2026-05-05 23:36 31.59126 104.36027 29746 ft 497 kts 354°
2026-05-05 23:37 31.66024 104.35627 29768 ft 496 kts 354°
2026-05-05 23:37 31.72917 104.35226 29791 ft 496 kts 354°
2026-05-05 23:38 31.79818 104.34831 29784 ft 496 kts 354°
2026-05-05 23:38 31.86723 104.34481 29804 ft 497 kts 354°
2026-05-05 23:39 31.93637 104.34133 29826 ft 497 kts 354°
2026-05-05 23:39 32.00554 104.33785 29821 ft 497 kts 354°
2026-05-05 23:40 32.07489 104.33433 29858 ft 498 kts 354°
2026-05-05 23:40 32.14410 104.33078 29853 ft 498 kts 354°
2026-05-05 23:41 32.21336 104.32714 29855 ft 498 kts 354°
2026-05-05 23:41 32.28266 104.32357 29857 ft 499 kts 354°
2026-05-05 23:42 32.35198 104.32001 29880 ft 499 kts 353°
2026-05-05 23:42 32.42144 104.31641 29873 ft 500 kts 353°
2026-05-05 23:43 32.49102 104.31291 29893 ft 501 kts 354°
2026-05-05 23:43 32.56074 104.30942 29911 ft 502 kts 353°
2026-05-05 23:44 32.63054 104.30597 29919 ft 503 kts 353°
2026-05-05 23:44 32.70060 104.30263 29903 ft 504 kts 353°
2026-05-05 23:45 32.77061 104.29930 29921 ft 503 kts 353°
2026-05-05 23:45 32.84062 104.29594 29930 ft 502 kts 353°
2026-05-05 23:46 32.91041 104.29259 29935 ft 502 kts 353°
2026-05-05 23:46 32.98024 104.28921 29947 ft 503 kts 353°
2026-05-05 23:47 33.05031 104.28583 29937 ft 504 kts 353°
2026-05-05 23:47 33.12044 104.28248 29933 ft 504 kts 353°
2026-05-05 23:48 33.19059 104.27905 29954 ft 505 kts 353°
2026-05-05 23:48 33.26096 104.27564 29938 ft 507 kts 353°
2026-05-05 23:49 33.32939 104.26321 29933 ft 490 kts 330°
2026-05-05 23:49 33.35792 104.24212 29950 ft 480 kts 316°
2026-05-05 23:49 33.38152 104.21426 29981 ft 475 kts 305°
2026-05-05 23:50 33.41452 104.14696 29970 ft 469 kts 295°
2026-05-05 23:50 33.44457 104.07734 29977 ft 472 kts 295°
2026-05-05 23:51 33.47512 104.00760 29989 ft 474 kts 296°
2026-05-05 23:51 33.50605 103.93794 29983 ft 474 kts 296°
2026-05-05 23:52 33.53707 103.86826 30014 ft 473 kts 296°
2026-05-05 23:52 33.56778 103.79924 30024 ft 463 kts 295°
2026-05-05 23:53 33.59769 103.73182 30030 ft 461 kts 295°
2026-05-05 23:53 33.62772 103.66390 30029 ft 462 kts 295°
2026-05-05 23:54 33.65779 103.59579 30045 ft 462 kts 295°
2026-05-05 23:54 33.68807 103.52710 30042 ft 462 kts 295°
2026-05-05 23:55 33.71793 103.45923 30053 ft 463 kts 294°
2026-05-05 23:55 33.74800 103.39070 30079 ft 463 kts 294°
2026-05-05 23:56 33.77797 103.32238 30048 ft 461 kts 294°
2026-05-05 23:56 33.80772 103.25428 30032 ft 459 kts 294°
2026-05-05 23:57 33.83729 103.18657 30069 ft 456 kts 294°
2026-05-05 23:57 33.86668 103.11912 30071 ft 455 kts 294°
2026-05-05 23:58 33.89589 103.05193 30085 ft 452 kts 294°
2026-05-05 23:58 33.92501 102.98481 30078 ft 451 kts 294°
2026-05-05 23:59 33.95399 102.91789 30095 ft 451 kts 294°
2026-05-05 23:59 33.98296 102.85086 30102 ft 451 kts 294°
2026-05-06 00:00 34.01191 102.78374 30104 ft 451 kts 294°
2026-05-06 00:00 34.04081 102.71662 30124 ft 451 kts 294°
2026-05-06 00:01 34.06967 102.64947 30121 ft 450 kts 294°
2026-05-06 00:01 34.09843 102.58239 30149 ft 451 kts 295°
2026-05-06 00:02 34.12718 102.51521 30178 ft 451 kts 295°
2026-05-06 00:02 34.15604 102.44770 30180 ft 453 kts 295°
2026-05-06 00:03 34.18495 102.37989 30164 ft 455 kts 295°
2026-05-06 00:03 34.21444 102.31205 30185 ft 457 kts 296°
2026-05-06 00:04 34.24461 102.24434 30198 ft 458 kts 296°
2026-05-06 00:04 34.27484 102.17637 30199 ft 459 kts 296°
2026-05-06 00:05 34.31983 102.07453 30196 ft 459 kts 296°
2026-05-06 00:06 34.34978 102.00650 30220 ft 458 kts 295°
2026-05-06 00:06 34.37964 101.93845 30215 ft 458 kts 295°
2026-05-06 00:07 34.40948 101.87031 30219 ft 458 kts 295°
2026-05-06 00:07 34.43921 101.80234 30220 ft 456 kts 295°
2026-05-06 00:08 34.46876 101.73465 30205 ft 453 kts 295°
2026-05-06 00:08 34.49808 101.66733 30225 ft 451 kts 295°
2026-05-06 00:09 34.52728 101.60017 30227 ft 450 kts 295°
2026-05-06 00:09 34.55639 101.53306 30221 ft 449 kts 295°
2026-05-06 00:10 34.58548 101.46589 30218 ft 450 kts 295°
2026-05-06 00:10 34.61457 101.39858 30232 ft 451 kts 295°
2026-05-06 00:11 34.64367 101.33110 30224 ft 452 kts 295°
2026-05-06 00:11 34.67266 101.26379 30229 ft 452 kts 295°
2026-05-06 00:12 34.70179 101.19598 30227 ft 453 kts 295°
2026-05-06 00:12 34.73089 101.12808 30226 ft 453 kts 295°
2026-05-06 00:13 34.75996 101.06016 30239 ft 452 kts 295°
2026-05-06 00:13 34.78897 100.99225 30216 ft 452 kts 295°
2026-05-06 00:14 34.81788 100.92444 30220 ft 451 kts 295°
2026-05-06 00:14 34.84672 100.85659 30238 ft 451 kts 295°
2026-05-06 00:15 34.87553 100.78875 30239 ft 451 kts 295°
2026-05-06 00:15 34.90429 100.72089 30231 ft 451 kts 295°
2026-05-06 00:16 34.93298 100.65302 30214 ft 451 kts 295°
2026-05-06 00:16 34.95698 100.59611 30239 ft 451 kts 295°
2026-05-06 00:17 34.98543 100.52857 30246 ft 451 kts 295°
2026-05-06 00:17 35.01406 100.46052 30231 ft 451 kts 295°
2026-05-06 00:18 35.04265 100.39237 30233 ft 451 kts 295°
2026-05-06 00:18 35.07118 100.32419 30243 ft 451 kts 295°
2026-05-06 00:19 35.09969 100.25597 30226 ft 451 kts 295°
2026-05-06 00:19 35.12810 100.18789 30227 ft 449 kts 294°
2026-05-06 00:20 35.15634 100.11990 30223 ft 448 kts 294°
2026-05-06 00:20 35.18455 100.05206 30228 ft 448 kts 294°
2026-05-06 00:21 35.21271 99.98411 30228 ft 448 kts 294°
2026-05-06 00:21 35.24085 99.91605 30221 ft 448 kts 294°
2026-05-06 00:22 35.26898 99.84791 30232 ft 449 kts 294°
2026-05-06 00:22 35.29709 99.77966 30226 ft 449 kts 294°
2026-05-06 00:23 35.32521 99.71126 30237 ft 450 kts 294°
2026-05-06 00:23 35.35328 99.64282 30229 ft 450 kts 294°
2026-05-06 00:24 35.38134 99.57424 30240 ft 451 kts 294°
2026-05-06 00:24 35.40937 99.50565 30236 ft 450 kts 294°
2026-05-06 00:25 35.43733 99.43707 30227 ft 449 kts 294°